Flag Weather past 2 weeks in Eastbourne, England, United Kingdom

Now
55 °F

Light rain. Passing clouds.


Feels Like: 53 °F
Forecast: N/A
Wind: 10 mph from East

Location: Shoreham Airport

Current Time: Nov 28, 2014 at 7:46:11 PM

Latest Report: Nov 28, 2014 at 7:20 PM


Visibility: 6 mi

Pressure: 29.65 "Hg

Humidity: 82%

Dew point: 50 °F

Location of EastbourneLocation

Historic Weather in Eastbourne — Graph

°F

Eastbourne temperature yesterday

Maximum temperature yesterday: 54 °F (at 3:20 PM)
Minimum temperature yesterday: 46 °F (at 8:20 AM)
Average temperature yesterday: 51 °F

Past Weeks' High & Low Weather Summary

 TemperatureHumidityPressure
High59 °F (Nov 14, 12:50 PM)100% (Nov 15, 8:50 AM)30.33 "Hg (Nov 15, 8:50 AM)
Low34 °F (Nov 24, 7:50 AM)72% (Nov 14, 1:50 PM)29.45 "Hg (Nov 15, 3:50 PM)
Average50 °F89%29.83 "Hg
* Reported Nov 13 6:20 PM — Nov 28 6:50 PM, Eastbourne, Weather by CustomWeather, © 2014

Note: Actual official high and low records may vary slightly from our data, if they occured in-between our weather recording intervals... More about our weather records

Advertising

Eastbourne weather history for previous 24 hours

 ConditionsComfort  
Time TempWeatherWind HumidityBarometerVisibility
6:50 PM
Nov 28
55 °FSprinkles. Passing clouds.9 mph77%29.62 "Hg5 mi
6:20 PM52 °FClear.6 mph88%29.62 "Hg10 mi
5:50 PM52 °FClear.7 mph88%29.59 "Hg10 mi
5:20 PM54 °FClear.8 mph82%29.59 "Hg10 mi
4:50 PM54 °FClear.8 mph82%29.59 "Hg10 mi
4:20 PM52 °FClear.9 mph88%29.59 "Hg6 mi
3:50 PM54 °FClear.8 mph82%29.56 "Hg6 mi
3:20 PM54 °FSunny.8 mph82%29.56 "Hg10 mi
2:50 PM54 °FPassing clouds.12 mph82%29.56 "HgN/A
2:20 PM55 °FPassing clouds.14 mph77%29.56 "HgN/A
1:50 PM55 °FPassing clouds.12 mph82%29.56 "HgN/A
1:20 PM55 °FPassing clouds.10 mph82%29.56 "HgN/A
12:50 PM55 °FPassing clouds.13 mph82%29.53 "Hg6 mi
12:20 PM55 °FPassing clouds.12 mph82%29.53 "Hg6 mi
11:50 AM54 °FPassing clouds.15 mph88%29.53 "Hg6 mi
11:20 AM54 °FScattered clouds.14 mph88%29.56 "Hg5 mi
10:50 AM54 °FScattered clouds.12 mph88%29.56 "Hg4 mi
10:20 AM52 °FPartly sunny.12 mph94%29.56 "Hg4 mi
9:50 AM54 °FPartly sunny.12 mph88%29.56 "Hg4 mi
9:20 AM54 °FPartly sunny.10 mph88%29.56 "Hg4 mi
8:50 AM52 °FPartly sunny.10 mph94%29.56 "Hg4 mi
8:20 AM52 °FPartly sunny.10 mph94%29.53 "Hg4 mi
7:50 AM52 °FPartly sunny.10 mph94%29.56 "Hg5 mi
7:50 PM
Nov 27
54 °FPassing clouds.10 mph82%29.56 "HgN/A
7:20 PM54 °FPassing clouds.10 mph82%29.56 "HgN/A
Weather by CustomWeather, © 2014

See weather overviewHow to use our weather pages